Regional Weather Roundup
Issued by NWS

Home | Current Version | Previous Version | Graphics & Text | Print | Product List | Glossary On
Versions: 1 2 3 4 5 6 7 8 9 10 11 12 13 14 15 16 17 18 19 20 21 22 23 24 25 26 27 28 29 30 31 32 33 34 35 36 37 38 39 40 41 42 43 44 45 46 47 48 49 50
000
ASUS43 KBIS 182110
RWRND

NORTH DAKOTA REGIONAL WEATHER ROUNDUP
NATIONAL WEATHER SERVICE BISMARCK ND
300 PM CST SUN FEB 18 2018

NOTE: "FAIR" INDICATES FEW OR NO CLOUDS BELOW 12,000 FEET WITH NO
SIGNIFICANT WEATHER AND/OR OBSTRUCTIONS TO VISIBILITY.


NDZ001>003-009>011-017-182200-
NORTHWEST NORTH DAKOTA

CITY           SKY/WX    TMP DP  RH WIND       PRES   REMARKS
WILLISTON      PTSUNNY   10   1  67 N12       29.97R WCI  -5
MINOT          MOSUNNY   11   0  61 NW17      29.92R WCI  -6
MINOT AFB      MOSUNNY   10  -1  62 N14       29.92R WCI  -6
$$

NDZ018>021-031>035-040>046-182200-
SOUTHWEST NORTH DAKOTA

CITY           SKY/WX    TMP DP  RH WIND       PRES   REMARKS
BISMARCK       CLOUDY    13   6  74 N15G24    29.85R WCI  -3
DICKINSON      LGT SNOW   8   1  73 N15       29.82R WCI  -9
GARRISON         N/A     10   2  69 N12G17    29.89R WCI  -5
HETTINGER ARPT CLOUDY     8   1  73 N18       29.80S HAZE    WCI -11
$$

NDZ004>008-012>016-024-026-027-054-182200-
NORTHEAST NORTH DAKOTA

CITY           SKY/WX    TMP DP  RH WIND       PRES   REMARKS
GRAND FORKS    LGT SNOW  14   9  80 N24       29.85R VSB 1   WCI  -5
GRND FRKS AFB  CLOUDY    13   7  78 NE22      29.86R BLWGSNOWWCI  -6
DEVILS LAKE    FLURRIES   9   3  77 N21       29.86S WCI -11
$$

NDZ022-023-025-028>030-036>039-047>053-182200-
SOUTHEAST NORTH DAKOTA

CITY           SKY/WX    TMP DP  RH WIND       PRES   REMARKS
FARGO          FAIR      17  13  84 N21G30    29.75R FOG     WCI   0
JAMESTOWN      LGT SNOW  13   8  81 N25       29.78R WCI  -7
$$




USA.gov is the U.S. government's official web portal to all federal, state and local government web resources and services.